Tracking 29892 objects as of 21-Nov-2024
HD Live streaming from Space Station
objects crossing your sky now

H-2A R/B

Track H-2A R/B now!


NORAD ID: 41037
Int'l Code: 2015-068B
Perigee: 2,583.4 km
Apogee: 35,776.0 km
Inclination: 18.7 °
Period: 677.4 minutes
Semi major axis: 25550 km
RCS: Unknown
Launch date: November 24, 2015
Source: Japan (JPN)
Launch site: TANEGASHIMA SPACE CENTER (TNSTA)

Note: This is a ROCKET BODY
Your satellite tracking list
Your tracking list is empty




NASA's NSSDC Master Catalog

Two Line Element Set (TLE):
1 41037U 15068B   24324.48477195 -.00000058  00000-0  00000-0 0  9999
2 41037  18.7306 202.5412 6495424  52.1564 350.5875  2.12568406 69827
Source of the keplerian elements: AFSPC